Home > Weather > Macon > Past weeks

Flag for U.S.A. Weather for the Past 2 Weeks in Macon, Georgia, U.S.A.

Now
44 °F

Sunny.


Feels Like: 41 °F
Forecast: 34 / 57 °F
Wind: 6 mph from Northwest

Location: Middle Georgia Regional Airport

Current Time: Feb 7, 2016 at 11:03:08 AM

Latest Report: Feb 7, 2016 at 9:53 AM


Visibility: 10 mi

Pressure: 30.15 "Hg

Humidity: 49%

Dew point: 26 °F

Location of MaconLocation

Historic Weather in Macon — Graph

°F

Macon Temperature Yesterday

Maximum temperature yesterday: 51 °F (at 12:53 PM)
Minimum temperature yesterday: 28 °F (at 3:53 AM)
Average temperature yesterday: 39 °F

High & Low Weather Summary for the Past Weeks

 TemperatureHumidityPressure
High77 °F (Feb 2, 12:53 PM)100% (Feb 1, 9:53 PM)30.40 "Hg (Feb 1, 9:53 PM)
Low24 °F (Jan 24, 4:53 AM)24% (Feb 5, 4:53 PM)29.82 "Hg (Jan 28, 5:53 PM)
Average48 °F75%30.10 "Hg
* Reported Jan 23 9:53 AM — Feb 7 9:53 AM, Macon, Weather by CustomWeather, © 2016

Note: Actual official high and low records may vary slightly from our data, if they occured in-between our weather recording intervals... More about our weather records

Advertising

Macon Weather History for the Previous 24 Hours

 ConditionsComfort  
Time TempWeatherWind HumidityBarometerVisibility
9:53 AM
Sun, Feb 7
44 °FSunny.6 mph49%30.15 "Hg10 mi
8:53 AM38 °FSunny.7 mph63%30.16 "Hg10 mi
7:53 AM30 °FSunny.6 mph82%30.14 "Hg10 mi
6:53 AM29 °FClear.5 mph85%30.13 "Hg10 mi
5:53 AM30 °FClear.5 mph85%30.12 "Hg10 mi
4:53 AM31 °FClear.6 mph85%30.13 "Hg10 mi
3:53 AM32 °FClear.5 mph85%30.14 "Hg10 mi
2:53 AM32 °FClear.5 mph88%30.13 "Hg10 mi
1:53 AM33 °FClear.No wind85%30.14 "Hg10 mi
12:53 AM33 °FClear.6 mph88%30.16 "Hg10 mi
11:53 PM
Sat, Feb 6
34 °FClear.5 mph88%30.18 "Hg10 mi
10:53 PM34 °FClear.6 mph85%30.19 "Hg10 mi
9:53 PM38 °FClear.No wind76%30.21 "Hg10 mi
8:53 PM41 °FPassing clouds.No wind67%30.22 "Hg10 mi
7:53 PM43 °FOvercast.5 mph62%30.24 "Hg10 mi
6:53 PM47 °FOvercast.9 mph52%30.24 "Hg10 mi
5:53 PM48 °FOvercast.No wind44%30.24 "Hg10 mi
4:53 PM48 °FOvercast.6 mph44%30.24 "Hg10 mi
3:53 PM50 °FOvercast.8 mph39%30.24 "Hg10 mi
2:53 PM50 °FMostly cloudy.6 mph35%30.25 "Hg10 mi
1:53 PM50 °FCloudy.12 mph35%30.27 "Hg10 mi
12:53 PM51 °FScattered clouds.10 mph32%30.30 "Hg10 mi
11:53 AM50 °FBroken clouds.7 mph33%30.34 "Hg10 mi
Weather by CustomWeather, © 2016

See weather overviewHow to use our weather pages